Location: Middelsbur
(53.6609°N, 7.5020°E)
Time: 23:42:40
(UTC+00:00)

Cosmos 2112 Rocket - Pass Details

Date: 06 July 2020
Orbit: 756 x 787 km, 74.0° (Epoch: 03 August)

Event Time Altitude Azimuth Distance (km) Brightness Sun altitude
Exits shadow 22:12:33 12° 189° (S) 2,200 5.8 -11.7°
Maximum altitude 22:17:26 63° 111° (ESE) 884 4.1 -12.0°
Drops below altitude 10° 22:22:44 10° 31° (NNE) 2,361 7.1 -12.2°
Sets 22:25:09 0° 28° (NNE) 3,292 8.0 -12.3°
